www.pogodaiklimat.ru

Погода и климат >> Архив погоды >> Южная Африка >> Коффи-Бей


ПОГОДА в Коффи-Бей

  • Прогноз погоды в Коффи-Бей
  • Монитор погоды в Коффи-Бей

АРХИВ ПОГОДЫ в Коффи-Бей

Время (UTC), дата Ветер
(напр.,м/с)
 
Видим.   Явления Облачность Т
(С)
Тd
(С)
f
(%)
Тe
(С)
Тes
(С)
Комфортность P
(гПа)
Po
(гПа)
Тmin
(С)
Tmax
(С)
R
(мм)
R24
(мм)
S
(см)
18 9.09 штиль 0 н/о н/о +15.9 +14.4 91 +16 +16 1016.8 1006.2 +15.8 +27.3
21 9.09 СЗ 2 н/о н/о +15.5 +13.1 86 +16 +16 1015.8 1005.2 +14.3 +27.3
00 10.09 СЗ 2 н/о н/о +15.3 +9.7 69 +15 +15 1014.6 1004.0 +13.6 +27.3
03 10.09 СЗ 2 н/о н/о +12.0 +8.8 81 +11 +11 1015.1 1004.4 +12.0 +27.3
06 10.09 СЗ 1 н/о н/о +17.5 +11.8 69 +19 +19 1015.6 1005.1 +11.2
09 10.09 ЮВ 3 н/о н/о +22.7 +16.1 66 +27 +27 душно 1014.6 1004.3 +11.2 +23.2
12 10.09 ЮВ 3 н/о н/о +25.1 +15.3 55 +28 +28 жарко 1011.6 1001.4 +11.2 +26.0
15 10.09 В 3 н/о н/о +22.2 +16.1 68 +26 +26 душно 1011.5 1001.2 +22.2 +26.6
18 10.09 СЗ 2 н/о н/о +15.8 +14.0 89 +16 +16 1011.5 1001.0 +15.7 +26.6
21 10.09 СЗ 1 н/о н/о +13.4 +11.6 89 +14 +14 1010.7 1000.1 +13.3 +26.6
00 11.09 СЗ 2 н/о н/о +13.1 +9.0 76 +12 +12 1009.5 998.9 +12.7 +26.6
03 11.09 ЮЗ 3 н/о н/о +13.9 +8.7 71 +13 +13 1009.6 999.0 +11.5 +26.6
06 11.09 ЮЗ 6 н/о н/о +19.2 +15.3 78 +20 +20 1013.9 1003.5 +11.5
09 11.09 Ю 3 н/о н/о +25.1 +16.4 59 +29 +29 душно 1013.8 1003.6 +11.5 +25.1
12 11.09 ЮЗ 4 н/о н/о +25.3 +14.9 53 +28 +28 жарко 1011.0 1000.8 +11.5 +25.9
15 11.09 Ю 2 н/о н/о +22.3 +15.0 63 +26 +26 жарко 1011.7 1001.4 +22.3 +25.9
18 11.09 ЮЗ 2 н/о н/о +17.6 +14.9 84 +18 +18 1014.8 1004.3 +17.3 +25.9
21 11.09 З 3 н/о н/о +17.9 +15.1 84 +18 +18 1014.6 1004.1 +17.1 +25.9
00 12.09 СЗ 3 н/о н/о +15.4 +13.7 90 +15 +15 1014.0 1003.4 +15.4 +25.9
03 12.09 СЗ 2 н/о н/о +14.5 +13.3 93 +14 +14 1012.6 1002.0 +14.5 +25.9
06 12.09 СЗ 3 н/о н/о +16.9 +14.7 87 +17 +17 1013.4 1002.9 +14.3
09 12.09 СВ 3 н/о н/о +23.8 +16.4 63 +27 +27 жарко 1010.8 1000.6 +14.3 +24.4
12 12.09 В 5 н/о н/о +23.8 +17.4 67 +28 +28 душно 1007.1 996.9 +14.3 +24.4
15 12.09 ЮЗ 3 н/о н/о +21.3 +18.1 82 +26 +26 душно 1009.6 999.3 +21.3 +24.4
18 12.09 З 5 н/о н/о +19.9 +16.4 80 +22 +22 комфорт 1012.9 1002.5 +19.9 +24.4
21 12.09 ЮЗ 5 н/о н/о +19.0 +15.1 78 +20 +20 1014.8 1004.3 +18.9 +24.4
00 13.09 З 3 н/о н/о +18.5 +13.8 74 +19 +19 1015.2 1004.7 +18.5 +24.4
03 13.09 ЮЗ 3 н/о н/о +16.3 +14.6 90 +16 +16 1016.2 1005.6 +16.1 +24.4
06 13.09 ЮЗ 5 н/о н/о +16.6 +12.0 74 +16 +16 1017.9 1007.3 +16.1
09 13.09 Ю 5 н/о н/о +19.4 +10.7 57 +20 +20 1017.9 1007.4 +16.1 +20.7
12 13.09 ЮЗ 7 н/о н/о +21.5 +7.8 41 +22 +22 комфорт 1016.4 1006.0 +16.1 +21.6
15 13.09 ЮЗ 4 н/о н/о +19.8 +8.9 49 +21 +21 комфорт 1017.5 1007.1 +19.8 +21.8
18 13.09 З 6 н/о н/о +15.7 +9.2 65 +14 +14 1020.8 1010.2 +15.7 +21.8
21 13.09 СЗ 3 н/о н/о +12.9 +8.4 74 +12 +12 1021.6 1010.9 +12.8 +21.8
00 14.09 З 4 н/о н/о +13.5 +6.1 61 +12 +12 1022.1 1011.4 +12.8 +21.8
03 14.09 З 5 н/о н/о +13.1 +5.3 59 +11 +11 1022.1 1011.4 +12.8 +21.8
06 14.09 З 4 н/о н/о +15.9 +6.1 52 +15 +15 1022.9 1012.3 +12.8
09 14.09 З 3 н/о н/о +21.5 +5.5 35 +22 +22 комфорт 1022.7 1012.3 +12.8 +21.5
12 14.09 Ю 4 н/о н/о +19.4 +9.4 52 +20 +20 1021.1 1010.6 +12.8 +22.4
15 14.09 Ю 2 н/о н/о +18.5 +10.1 58 +20 +20 1021.3 1010.8 +18.5 +22.4
18 14.09 СЗ 1 н/о н/о +16.7 +11.6 72 +18 +18 1022.0 1011.4 +16.7 +22.4
21 14.09 С 3 н/о н/о +15.5 +12.2 81 +15 +15 1021.4 1010.8 +15.4 +22.4
00 15.09 СЗ 2 н/о н/о +13.4 +10.7 84 +13 +13 1020.5 1009.8 +13.3 +22.4
03 15.09 С 2 н/о н/о +11.8 +9.5 86 +11 +11 1020.0 1009.2 +11.8 +22.4
06 15.09 С 3 н/о н/о +16.6 +10.3 66 +16 +16 1019.9 1009.3 +11.4
09 15.09 В 5 н/о н/о +22.6 +12.9 54 +25 +25 комфорт 1018.8 1008.4 +11.4 +23.3
12 15.09 СВ 7 н/о н/о +23.4 +16.5 65 +28 +28 душно 1016.7 1006.4 +11.4 +24.5
15 15.09 СВ 5 н/о н/о +20.8 +17.4 81 +25 +25 комфорт 1016.9 1006.5 +20.8 +24.5
18 15.09 СЗ 2 н/о н/о +17.5 +16.2 92 +18 +18 1017.9 1007.4 +17.3 +24.5
21 15.09 СЗ 3 н/о н/о +16.3 +15.3 94 +16 +16 1018.6 1008.0 +15.9 +24.5
00 16.09 СЗ 3 н/о н/о +15.0 +13.3 90 +14 +14 1017.1 1006.5 +14.9 +24.5
03 16.09 СЗ 2 н/о н/о +14.5 +11.3 81 +14 +14 1016.5 1005.9 +14.2 +24.5
06 16.09 С 2 н/о н/о +19.4 +12.5 64 +21 +21 комфорт 1017.0 1006.5 +14.0

 

Местоположение метеостанции Коффи-Бей (Южная Африка): широта -31.95 долгота 29.13 высота над уровнем моря 161 м.

В архиве по умолчанию представлена погода в Коффи-Бей за последнюю неделю. Архивные данные за месяц целиком и за предыдущие месяцы, начиная с января 2011 года, Вы можете получить, выбрав интересующий диапазон дат из раскрывающегося списка и нажав кнопку "Ввод!".


*Определитесь, кто Вы:
робот инопланетянин человек

Внимание! Время в таблицах - всемирное. Для получения местного времени необходимо прибавить поправку, которая равна 2 ч.

Смотрите также архив погоды в соседних городах и на ближайших метеорологических станциях:

Погода в Порт Сент-Джон (Южная Африка) (53 км)
Погода в Умтате (Южная Африка) (64 км)
Погода в Эллиоте (Южная Африка) (139 км)
Погода в Порт-Эдварде (Южная Африка) (144 км)
Погода в Кокстаде (Южная Африка) (163 км)
Погода в Маргите (Южная Африка) (167 км)
Погода в Стуттерхейме (Южная Африка) (168 км)
Погода в Ист-Лондоне (Южная Африка) (171 км)
Погода в Паддоке (Южная Африка) (171 км)
Погода в Баркли-Ист (Южная Африка) (184 км)

Пояснения к столбцам:

Ветер - указаны скорость ветра в м/с - средняя за 10 мин, порывы в срок и между сроками (в фигурных скобках) и направление, откуда дует ветер: С - северный, СВ - северо-восточный, В - восточный, ЮВ - юго-восточный, Ю - южный, ЮЗ - юго-западный, З - западный, СЗ - северо-западный.
Видимость - горизонтальная дальность видимости в метрах или километрах. При видимости от 1 до 10 км при отсутствии осадков обычно наблюдается дымка, при ухудшении видимости до 1 км и менее - туман. В сухую погоду видимость может ухудшаться дымом, пылью или мглою.
Явления - указаны атмосферные явления, наблюдавшиеся в срок или в последний час перед сроком; фигурными скобками обозначены явления, наблюдавшиеся между сроками (за 1-3 часа до срока); квадратными скобками обозначены град или гололедные отложения с указанием их диаметра в мм.
Облачность - указаны через наклонную черту общая и нижняя облачность в баллах и высота нижней границы облаков в метрах; квадратными скобками обозначены формы облаков: Ci - перистые, Cs - перисто-слоистые, Cc - перисто-кучевые, Ac - высококучевые, As - высокослоистые, Sc - слоисто-кучевые, Ns - слоисто-дождевые, Cu - кучевые, Cb - кучево-дождевые. Подробнее классификацию облаков см. в Атласе облаков (PDF).
T - Температура воздуха - температура, измеренная на высоте 2 м над землей.
Td - Температура точки росы - температура, при понижении до которой содержащийся в воздухе водяной пар достигнет насыщения.
f - Относительная влажность воздуха - влажноcть воздуха, измеренная на высоте 2 м над землей.
Te - Эффективная температура - температура, которую ощущает одетый по сезону человек в тени. Характеристика душности погоды. При расчете учитывается влияние влажности воздуха и скорости ветра на теплоощущения человека.
Tes - Эффективная температура на солнце - температура, которую ощущает человек, с поправкой на солнечный нагрев. Характеристика знойности погоды. Зависит от высоты солнца над горизонтом, облачности и скорости ветра. Ночью, в пасмурную погоду, а также при ветре 12 м/с и более поправка равна нулю.
P - Атмосферное давление - приведенное к уровню моря атмосферное давление.
Po - Атмосферное давление - измеренное на уровне метеостанции атмосферное давление.
Tmin - Минимальная температура - минимум температуры воздуха на высоте 2 м над землей.
Tmax - Максимальная температура - максимум температуры воздуха на высоте 2 м над землей.
R - Количество осадков - Количество выпавших осадков за период времени, мм. При наведении курсора мыши на число - период времени, за который выпало указанное количество осадков.
R24 - Количество осадков - Количество выпавших осадков за 24 часа, мм.
S - Снежный покров - Высота снежного покрова, см. При наведении курсора мыши на число - состояние снежного покрова и степень покрытия местности в баллах.